GW2826 Weather Reports


time (UTC)temp
C
wind
direction
speed
KPH
gust
KPH
rain 1hr
cm
rain 24hr
cm
rain mn
cm
humidity
%
barometer
mb
20260503022204 9 58 1.6 3.2 0.00 0.00 0.00 99 1000.1
20260503022104 9 59 1.6 3.2 0.00 0.00 0.00 99 1000.2
20260503022004 9 59 1.6 4.8 0.00 0.00 0.00 99 1000.1
20260503021904 9 60 1.6 4.8 0.00 0.00 0.00 99 1000.0
20260503021804 9 64 1.6 6.4 0.00 0.00 0.00 99 1000.2
20260503021704 9 64 1.6 6.4 0.00 0.00 0.00 99 1000.1
20260503021604 9 67 3.2 6.4 0.00 0.00 0.00 99 1000.0
20260503021504 9 69 3.2 6.4 0.00 0.00 0.00 99 1000.2
20260503021404 9 71 3.2 6.4 0.00 0.00 0.00 99 1000.3
20260503021304 9 73 3.2 6.4 0.00 0.00 0.00 99 1000.2
20260503021204 9 73 3.2 6.4 0.00 0.00 0.00 99 1000.2
20260503021104 8 74 3.2 6.4 0.00 0.00 0.00 99 1000.3
20260503021004 8 74 3.2 6.4 0.00 0.00 0.00 99 1000.2
20260503020925 8 75 4.8 9.7 0.00 0.00 0.00 99 1000.2
20260503020804 8 74 4.8 9.7 0.00 0.00 0.00 99 1000.2
20260503020725 8 73 4.8 9.7 0.00 0.00 0.00 99 1000.2
20260503020604 8 72 4.8 9.7 0.00 0.00 0.00 99 1000.3
20260503020504 8 71 4.8 9.7 0.00 0.00 0.00 99 1000.2
20260503020425 8 70 4.8 9.7 0.00 0.00 0.00 99 1000.2
20260503020304 8 69 4.8 9.7 0.00 0.00 0.00 99 1000.3
20260503020204 8 69 4.8 9.7 0.00 0.00 0.00 99 1000.2
20260503020104 8 68 4.8 9.7 0.00 0.00 0.00 99 1000.2
20260503020004 8 67 4.8 9.7 0.00 0.00 0.00 99 1000.1
20260503015904 9 66 4.8 9.7 0.00 0.00 0.00 99 1000.2
20260503015804 9 66 4.8 6.4 0.00 0.00 0.00 99 1000.2
20260503015725 9 66 4.8 6.4 0.00 0.00 0.00 99 1000.3
20260503015604 9 65 4.8 6.4 0.00 0.00 0.00 99 1000.4
20260503015504 9 66 4.8 6.4 0.00 0.00 0.00 99 1000.2
20260503015425 9 67 3.2 6.4 0.00 0.00 0.00 99 1000.3
20260503015305 9 68 3.2 6.4 0.00 0.00 0.00 99 1000.3
20260503015204 9 66 3.2 6.4 0.00 0.00 0.00 99 1000.4
20260503015104 9 66 3.2 6.4 0.00 0.00 0.00 99 1000.3
20260503015004 9 65 3.2 6.4 0.00 0.00 0.00 99 1000.5
20260503014904 9 63 3.2 6.4 0.00 0.00 0.00 99 1000.4
20260503014825 9 63 3.2 6.4 0.00 0.00 0.00 99 1000.2
20260503014704 9 62 3.2 6.4 0.00 0.00 0.00 99 1000.1
20260503014604 9 62 3.2 6.4 0.00 0.00 0.00 99 1000.3
20260503014504 9 62 3.2 6.4 0.00 0.00 0.00 99 1000.5
20260503014404 9 61 3.2 6.4 0.00 0.00 0.00 99 1000.3
20260503014304 9 62 3.2 6.4 0.00 0.00 0.00 99 1000.3
20260503014225 9 63 3.2 6.4 0.00 0.00 0.00 99 1000.3
20260503014104 9 62 3.2 6.4 0.00 0.00 0.00 99 1000.2
20260503014004 9 64 3.2 6.4 0.00 0.00 0.00 99 1000.5
20260503013904 9 66 3.2 6.4 0.00 0.00 0.00 99 1000.3
20260503013804 9 67 3.2 6.4 0.00 0.00 0.00 99 1000.4
20260503013704 9 68 3.2 6.4 0.00 0.00 0.00 99 1000.4
20260503013604 9 67 3.2 6.4 0.00 0.00 0.00 99 1000.5
20260503013504 9 67 3.2 6.4 0.00 0.00 0.00 99 1000.4
20260503013404 9 66 3.2 6.4 0.00 0.00 0.00 99 1000.4
20260503013304 9 64 3.2 6.4 0.00 0.00 0.00 99 1000.6
20260503013204 9 64 3.2 4.8 0.00 0.00 0.00 99 1000.3
20260503013104 9 65 1.6 4.8 0.00 0.00 0.00 99 1000.6
20260503013004 9 64 1.6 4.8 0.00 0.00 0.00 99 1000.5
20260503012904 9 63 1.6 4.8 0.00 0.00 0.00 99 1000.4
20260503012825 9 63 1.6 4.8 0.00 0.00 0.00 99 1000.3
20260503012704 9 64 1.6 4.8 0.00 0.00 0.00 99 1000.5
20260503012625 9 64 1.6 4.8 0.00 0.00 0.00 99 1000.5
20260503012504 9 64 1.6 4.8 0.00 0.00 0.00 99 1000.4
20260503012425 9 65 1.6 4.8 0.00 0.00 0.00 99 1000.4
20260503012305 9 64 1.6 4.8 0.00 0.00 0.00 99 1000.3
20260503012204 9 63 1.6 4.8 0.00 0.00 0.00 99 1000.5
20260503012104 9 60 1.6 4.8 0.00 0.00 0.00 99 1000.5
20260503012004 9 58 1.6 4.8 0.00 0.00 0.00 99 1000.7
20260503011904 9 53 1.6 4.8 0.00 0.00 0.00 99 1000.5
20260503011804 9 49 1.6 4.8 0.00 0.00 0.00 99 1000.4
20260503011704 9 45 1.6 4.8 0.00 0.00 0.00 99 1000.6
20260503011604 9 43 1.6 3.2 0.00 0.00 0.00 99 1000.6
20260503011504 9 42 1.6 3.2 0.00 0.00 0.00 99 1000.6
20260503011404 9 42 1.6 3.2 0.00 0.00 0.00 99 1000.4
20260503011304 9 42 1.6 3.2 0.00 0.00 0.00 99 1000.5
20260503011204 9 41 1.6 3.2 0.00 0.00 0.00 99 1000.4
20260503011104 9 41 1.6 3.2 0.00 0.00 0.00 99 1000.5
20260503011025 9 37 1.6 4.8 0.00 0.00 0.00 99 1000.6
20260503010904 9 39 1.6 4.8 0.00 0.00 0.00 99 1000.6
20260503010804 9 37 1.6 4.8 0.00 0.00 0.00 99 1000.5
20260503010704 9 33 1.6 4.8 0.00 0.00 0.00 99 1000.6
20260503010604 9 30 1.6 4.8 0.00 0.00 0.00 99 1000.7
20260503010504 9 28 3.2 4.8 0.00 0.00 0.00 99 1000.6
20260503010404 9 25 3.2 4.8 0.00 0.00 0.00 99 1000.6
20260503010304 9 22 3.2 4.8 0.00 0.00 0.00 99 1000.5
20260503010204 9 19 3.2 4.8 0.00 0.00 0.00 99 1000.6
20260503010104 9 17 3.2 4.8 0.00 0.00 0.00 99 1000.6
20260503010004 9 17 3.2 4.8 0.00 0.00 0.00 99 1000.5
20260503005904 9 15 3.2 4.8 0.00 0.00 0.00 99 1000.5
20260503005825 9 14 3.2 4.8 0.00 0.00 0.00 99 1000.7
20260503005704 10 12 1.6 4.8 0.00 0.00 0.00 99 1000.7
20260503005604 10 14 1.6 3.2 0.00 0.00 0.00 99 1000.7
20260503005504 10 11 1.6 3.2 0.00 0.00 0.00 99 1000.6
20260503005404 10 8 1.6 3.2 0.00 0.00 0.00 99 1000.7
20260503005325 10 8 1.6 3.2 0.00 0.00 0.00 99 1000.5
20260503005225 10 6 1.6 3.2 0.00 0.00 0.00 99 1000.6
20260503005104 10 7 1.6 3.2 0.00 0.00 0.00 99 1000.6
20260503005004 10 7 1.6 3.2 0.00 0.00 0.00 99 1000.7
20260503004904 10 7 1.6 3.2 0.00 0.00 0.00 99 1000.5
20260503004804 10 8 1.6 3.2 0.00 0.00 0.00 98 1000.6
20260503004704 10 9 1.6 3.2 0.00 0.00 0.00 98 1000.6
20260503004604 10 10 1.6 3.2 0.00 0.00 0.00 98 1000.7
20260503004504 10 11 1.6 3.2 0.00 0.00 0.00 98 1000.6
20260503004404 10 12 1.6 3.2 0.00 0.00 0.00 98 1000.5
20260503004304 10 14 1.6 3.2 0.00 0.00 0.00 98 1000.4
20260503004204 10 16 1.6 3.2 0.00 0.00 0.00 98 1000.5
20260503004104 10 18 1.6 3.2 0.00 0.00 0.00 98 1000.7
20260503004004 10 19 1.6 3.2 0.00 0.00 0.00 98 1000.8
20260503003904 10 21 1.6 3.2 0.00 0.00 0.00 98 1000.6
20260503003804 10 24 1.6 3.2 0.00 0.00 0.00 98 1000.6
20260503003704 10 28 0.0 3.2 0.00 0.00 0.00 98 1000.4
20260503003604 10 31 0.0 3.2 0.00 0.00 0.00 97 1000.8
20260503003504 10 31 0.0 3.2 0.00 0.00 0.00 97 1000.6
20260503003404 10 29 0.0 3.2 0.00 0.00 0.00 97 1000.6
20260503003325 10 27 0.0 3.2 0.00 0.00 0.00 97 1000.6
20260503003204 10 24 0.0 3.2 0.00 0.00 0.00 97 1000.5
20260503003104 10 22 1.6 3.2 0.00 0.00 0.00 97 1000.5
20260503003025 10 21 1.6 3.2 0.00 0.00 0.00 97 1000.6
20260503002904 10 20 1.6 3.2 0.00 0.00 0.00 97 1000.7
20260503002804 10 18 1.6 3.2 0.00 0.00 0.00 97 1000.8
20260503002704 10 16 1.6 3.2 0.00 0.00 0.00 96 1000.5
20260503002604 10 14 1.6 3.2 0.00 0.00 0.00 96 1000.4
20260503002504 10 13 1.6 3.2 0.00 0.00 0.00 96 1000.6
20260503002404 10 13 1.6 3.2 0.00 0.00 0.00 96 1000.5
20260503002305 10 13 1.6 3.2 0.00 0.00 0.00 96 1000.3
20260503002204 10 13 1.6 3.2 0.00 0.00 0.00 96 1000.5
20260503002104 10 13 1.6 3.2 0.00 0.00 0.00 96 1000.5
20260503002004 10 13 1.6 3.2 0.00 0.00 0.00 96 1000.4
20260503001904 10 13 1.6 3.2 0.00 0.00 0.00 95 1000.6
20260503001804 10 13 1.6 3.2 0.00 0.00 0.00 95 1000.7
20260503001704 10 13 1.6 3.2 0.00 0.00 0.00 95 1000.5
20260503001604 10 13 0.0 3.2 0.00 0.00 0.00 95 1000.6
20260503001504 10 13 0.0 3.2 0.00 0.00 0.00 95 1000.5
20260503001404 10 13 0.0 3.2 0.00 0.00 0.00 95 1000.3
20260503001304 10 13 0.0 3.2 0.00 0.00 0.00 95 1000.5
20260503001204 10 13 0.0 3.2 0.00 0.00 0.00 95 1000.6
20260503001104 10 13 0.0 1.6 0.00 0.00 0.00 95 1000.5
20260503001004 10 13 0.0 1.6 0.00 0.00 0.00 95 1000.5
20260503000904 10 13 0.0 1.6 0.00 0.00 0.00 95 1000.5
20260503000803 10 24 0.0 1.6 0.00 0.00 0.00 95 1000.5
20260503000704 10 31 0.0 1.6 0.00 0.00 0.00 95 1000.7
20260503000604 10 37 0.0 3.2 0.00 0.00 0.00 95 1000.6
20260503000504 10 42 0.0 3.2 0.00 0.00 0.00 95 1000.5
20260503000404 10 47 0.0 3.2 0.00 0.00 0.00 95 1000.6
20260503000304 10 50 0.0 3.2 0.00 0.00 0.00 95 1000.7
20260503000204 10 53 1.6 3.2 0.00 0.00 0.00 95 1000.6
20260503000104 10 57 1.6 3.2 0.00 0.00 0.00 95 1000.7
20260503000004 10 61 1.6 3.2 0.00 0.00 0.00 95 1000.6
20260502235904 10 65 1.6 3.2 0.00 0.00 0.00 96 1000.4
20260502235825 10 67 1.6 3.2 0.00 0.00 0.00 96 1000.5
20260502235704 10 68 1.6 3.2 0.00 0.00 0.00 96 1000.5
20260502235604 10 69 1.6 3.2 0.00 0.00 0.00 96 1000.4
20260502235504 10 71 1.6 3.2 0.00 0.00 0.00 96 1000.6
20260502235404 10 71 1.6 3.2 0.00 0.00 0.00 96 1000.6
20260502235305 10 71 1.6 3.2 0.00 0.00 0.00 96 1000.4
20260502235204 10 72 1.6 3.2 0.00 0.00 0.00 97 1000.5
20260502235104 10 72 0.0 3.2 0.00 0.00 0.00 97 1000.4
20260502235004 10 72 0.0 3.2 0.00 0.00 0.00 97 1000.7
20260502234925 9 72 0.0 3.2 0.00 0.00 0.00 97 1000.5
20260502234804 9 72 0.0 1.6 0.00 0.00 0.00 97 1000.7
20260502234704 9 72 0.0 1.6 0.00 0.00 0.00 97 1000.6
20260502234604 9 0 0.0 0.0 0.00 0.00 0.00 97 1000.7
20260502234504 9 0 0.0 0.0 0.00 0.00 0.00 97 1000.6
20260502234404 9 0 0.0 0.0 0.00 0.00 0.00 97 1000.5
20260502234304 9 0 0.0 0.0 0.00 0.00 0.00 97 1000.7
20260502234204 9 0 0.0 0.0 0.00 0.00 0.00 97 1000.6
20260502234104 9 0 0.0 0.0 0.00 0.00 0.00 97 1000.7
20260502234004 9 0 0.0 0.0 0.00 0.00 0.00 97 1000.7
20260502233904 9 0 0.0 0.0 0.00 0.00 0.00 97 1000.6
20260502233804 9 0 0.0 0.0 0.00 0.00 0.00 97 1000.6
20260502233704 9 0 0.0 0.0 0.00 0.00 0.00 97 1000.7
20260502233604 9 0 0.0 0.0 0.00 0.00 0.00 97 1000.6
20260502233504 9 0 0.0 0.0 0.00 0.00 0.00 97 1000.9
20260502233404 9 0 0.0 0.0 0.00 0.00 0.00 97 1000.8
20260502233304 9 0 0.0 0.0 0.00 0.00 0.00 97 1000.7
20260502233203 9 0 0.0 0.0 0.00 0.00 0.00 97 1000.7
20260502233104 9 0 0.0 0.0 0.00 0.00 0.00 97 1000.7
20260502233004 9 0 0.0 0.0 0.00 0.00 0.00 97 1000.8
20260502232904 9 0 0.0 0.0 0.00 0.00 0.00 97 1000.9
20260502232804 9 0 0.0 0.0 0.00 0.00 0.00 98 1000.9
20260502232704 9 0 0.0 0.0 0.00 0.00 0.00 98 1000.7
20260502232604 9 0 0.0 0.0 0.00 0.00 0.00 98 1000.7
20260502232504 9 0 0.0 0.0 0.00 0.00 0.00 98 1000.8
20260502232404 9 0 0.0 0.0 0.00 0.00 0.00 98 1000.8
20260502232325 9 0 0.0 0.0 0.00 0.00 0.00 98 1001.0
20260502232225 9 0 0.0 0.0 0.00 0.00 0.00 98 1000.8
20260502232103 9 0 0.0 0.0 0.00 0.00 0.00 98 1000.7
20260502232004 9 0 0.0 0.0 0.00 0.00 0.00 98 1000.6
20260502231904 9 0 0.0 0.0 0.00 0.00 0.00 98 1001.0
20260502231804 9 0 0.0 0.0 0.00 0.00 0.00 98 1000.9
20260502231704 9 0 0.0 0.0 0.00 0.00 0.00 98 1000.9
20260502231604 9 0 0.0 0.0 0.00 0.00 0.00 98 1000.9
20260502231503 9 0 0.0 0.0 0.00 0.00 0.00 98 1000.9
20260502231425 9 0 0.0 0.0 0.00 0.00 0.00 98 1001.0
20260502231304 9 0 0.0 0.0 0.00 0.00 0.00 98 1000.8
20260502231204 9 0 0.0 0.0 0.00 0.00 0.00 98 1000.8
20260502231104 9 0 0.0 0.0 0.00 0.00 0.00 98 1000.8
20260502231004 9 0 0.0 0.0 0.00 0.00 0.00 98 1000.8
20260502230904 9 0 0.0 0.0 0.00 0.00 0.00 98 1001.0
20260502230825 9 0 0.0 0.0 0.00 0.00 0.00 98 1001.0
20260502230704 9 0 0.0 0.0 0.00 0.00 0.00 98 1000.9
20260502230604 9 0 0.0 0.0 0.00 0.00 0.00 98 1000.9
20260502230525 9 0 0.0 0.0 0.00 0.00 0.00 98 1000.8
20260502230424 9 0 0.0 0.0 0.00 0.00 0.00 98 1000.8
20260502230304 9 72 0.0 1.6 0.00 0.00 0.00 98 1000.8
20260502230204 9 72 0.0 1.6 0.00 0.00 0.00 98 1000.8
20260502230104 9 72 0.0 1.6 0.00 0.00 0.00 98 1000.8
20260502230004 9 72 0.0 1.6 0.00 0.00 0.00 98 1000.9
20260502225904 9 72 0.0 1.6 0.00 0.00 0.00 98 1001.0
20260502225804 9 72 0.0 1.6 0.00 0.00 0.00 98 1000.8
20260502225704 9 72 0.0 1.6 0.00 0.00 0.00 98 1001.1
20260502225603 9 72 0.0 1.6 0.00 0.00 0.00 98 1000.7
20260502225504 9 72 0.0 1.6 0.00 0.00 0.00 98 1000.7
20260502225404 9 72 0.0 1.6 0.00 0.00 0.00 98 1001.0
20260502225304 9 72 0.0 1.6 0.00 0.00 0.00 98 1000.9
20260502225204 9 72 0.0 1.6 0.00 0.00 0.00 98 1001.1
20260502225104 9 72 0.0 1.6 0.00 0.00 0.00 98 1001.1
20260502225004 9 72 0.0 1.6 0.00 0.00 0.00 98 1001.1
20260502224904 9 72 0.0 1.6 0.00 0.00 0.00 99 1001.1
20260502224804 9 72 0.0 1.6 0.00 0.00 0.00 99 1001.1
20260502224704 9 72 0.0 1.6 0.00 0.00 0.00 99 1001.3
20260502224604 9 72 0.0 1.6 0.00 0.00 0.00 99 1001.1
20260502224504 9 0 0.0 0.0 0.00 0.00 0.00 99 1001.0
20260502224404 9 0 0.0 0.0 0.00 0.00 0.00 99 1001.0
20260502224303 9 0 0.0 0.0 0.00 0.00 0.00 99 1001.2
20260502224225 9 0 0.0 0.0 0.00 0.00 0.00 99 1001.1
20260502224104 9 0 0.0 0.0 0.00 0.00 0.00 99 1001.0
20260502224004 9 0 0.0 0.0 0.00 0.00 0.00 99 1001.1
20260502223904 9 0 0.0 0.0 0.00 0.00 0.00 99 1001.2
20260502223804 9 0 0.0 0.0 0.00 0.00 0.00 99 1001.1
20260502223704 9 0 0.0 0.0 0.00 0.00 0.00 99 1001.0
20260502223604 9 0 0.0 0.0 0.00 0.00 0.00 99 1001.0
20260502223504 9 0 0.0 0.0 0.00 0.00 0.00 99 1001.1
20260502223425 9 0 0.0 0.0 0.00 0.00 0.00 99 1001.1
20260502223304 9 72 0.0 1.6 0.00 0.00 0.00 99 1001.2
20260502223204 9 72 0.0 1.6 0.00 0.00 0.00 99 1001.1
20260502223104 9 72 0.0 1.6 0.00 0.00 0.00 99 1001.2
20260502223004 9 72 0.0 1.6 0.00 0.00 0.00 99 1001.2
20260502222925 9 72 0.0 1.6 0.00 0.00 0.00 99 1001.2
20260502222804 9 72 0.0 1.6 0.00 0.00 0.00 99 1001.2
20260502222704 9 72 0.0 1.6 0.00 0.00 0.00 99 1001.2
20260502222625 9 72 0.0 1.6 0.00 0.00 0.00 99 1001.3
20260502222525 9 72 0.0 1.6 0.00 0.00 0.00 99 1000.9
20260502222404 9 72 0.0 1.6 0.00 0.00 0.00 99 1000.9
20260502222305 9 72 0.0 1.6 0.00 0.00 0.00 99 1000.9
20260502222204 9 0 0.0 0.0 0.00 0.00 0.00 99 1001.1
20260502222104 9 0 0.0 0.0 0.00 0.00 0.00 99 1001.2
20260502222004 9 0 0.0 0.0 0.00 0.00 0.00 99 1001.1
20260502221903 9 0 0.0 0.0 0.00 0.00 0.00 99 1001.0
20260502221804 9 0 0.0 0.0 0.00 0.00 0.00 99 1001.3
20260502221704 9 0 0.0 0.0 0.00 0.00 0.00 99 1001.3
20260502221604 9 0 0.0 0.0 0.00 0.00 0.00 99 1001.2
20260502221504 9 0 0.0 0.0 0.00 0.00 0.00 99 1001.2
20260502221404 9 72 0.0 1.6 0.00 0.00 0.00 99 1001.2
20260502221304 9 72 0.0 1.6 0.00 0.00 0.00 99 1001.2
20260502221204 9 72 0.0 1.6 0.00 0.00 0.00 99 1001.2
20260502221103 9 72 0.0 1.6 0.00 0.00 0.00 99 1001.1
20260502221004 9 72 0.0 1.6 0.00 0.00 0.00 99 1001.3
20260502220904 9 72 0.0 1.6 0.00 0.00 0.00 99 1001.2
20260502220825 9 72 0.0 1.6 0.00 0.00 0.00 99 1001.2
20260502220704 9 72 0.0 1.6 0.00 0.00 0.00 99 1001.2
20260502220603 9 72 0.0 1.6 0.00 0.00 0.00 99 1001.4
20260502220403 9 72 0.0 1.6 0.00 0.00 0.00 99 1001.3
20260502220304 9 72 0.0 1.6 0.00 0.00 0.00 99 1001.4
20260502220204 9 72 0.0 1.6 0.00 0.00 0.00 99 1001.3
20260502220104 9 72 0.0 1.6 0.00 0.00 0.00 99 1001.2
20260502220004 9 72 0.0 1.6 0.00 0.00 0.00 99 1001.2
20260502215904 9 72 0.0 1.6 0.00 0.00 0.00 99 1001.2
20260502215804 9 72 0.0 1.6 0.00 0.00 0.00 99 1001.4
20260502215703 9 72 0.0 1.6 0.00 0.00 0.00 99 1001.4
20260502215604 9 72 0.0 1.6 0.00 0.00 0.00 99 1001.4
20260502215504 9 72 0.0 1.6 0.00 0.00 0.00 99 1001.4
20260502215404 9 72 0.0 1.6 0.00 0.00 0.00 99 1001.4
20260502215305 9 72 0.0 1.6 0.00 0.00 0.00 99 1001.5
20260502215225 9 72 0.0 1.6 0.00 0.00 0.00 99 1001.4
20260502215124 9 72 0.0 1.6 0.00 0.00 0.00 99 1001.3
20260502215004 9 72 0.0 3.2 0.00 0.00 0.00 99 1001.4
20260502214904 9 72 0.0 3.2 0.00 0.00 0.00 99 1001.3
20260502214804 9 72 0.0 3.2 0.00 0.00 0.00 99 1001.1
20260502214725 9 72 0.0 3.2 0.00 0.00 0.00 99 1001.1
20260502214604 9 72 1.6 3.2 0.00 0.00 0.00 99 1001.5
20260502214504 9 72 1.6 3.2 0.00 0.00 0.00 99 1001.4
20260502214404 9 72 1.6 3.2 0.00 0.00 0.00 99 1001.4
20260502214325 9 72 1.6 3.2 0.00 0.00 0.00 99 1001.2
20260502214225 9 72 1.6 3.2 0.00 0.00 0.00 99 1001.2
20260502214104 9 72 1.6 3.2 0.00 0.00 0.00 99 1001.4
20260502214003 9 72 1.6 3.2 0.00 0.00 0.00 99 1001.4
20260502213904 9 72 1.6 3.2 0.00 0.00 0.00 99 1001.5
20260502213804 9 73 1.6 3.2 0.00 0.00 0.00 99 1001.2
20260502213725 9 73 1.6 3.2 0.00 0.00 0.00 99 1001.5
20260502213603 9 73 1.6 3.2 0.00 0.00 0.00 99 1001.4
20260502213504 9 73 1.6 3.2 0.00 0.00 0.00 99 1001.4
20260502213403 9 73 1.6 4.8 0.00 0.00 0.00 99 1001.4
20260502213304 9 74 1.6 4.8 0.00 0.00 0.00 99 1001.2
20260502213204 9 74 1.6 4.8 0.00 0.00 0.00 99 1001.5
20260502213103 9 74 1.6 4.8 0.00 0.00 0.00 99 1001.4
20260502213004 9 74 1.6 4.8 0.00 0.00 0.00 99 1001.4
20260502212904 9 75 3.2 4.8 0.00 0.00 0.00 99 1001.5
20260502212804 9 75 3.2 4.8 0.00 0.00 0.00 99 1001.3
20260502212703 9 75 3.2 4.8 0.00 0.00 0.00 99 1001.4
20260502212604 9 75 3.2 4.8 0.00 0.00 0.00 99 1001.6
20260502212503 9 76 3.2 4.8 0.00 0.00 0.00 99 1001.6
20260502212404 9 76 3.2 4.8 0.00 0.00 0.00 99 1001.3
20260502212305 9 76 3.2 4.8 0.00 0.00 0.00 99 1001.4
20260502212203 9 76 3.2 4.8 0.00 0.00 0.00 99 1001.6
20260502212104 9 76 3.2 4.8 0.00 0.00 0.00 99 1001.6
20260502212004 9 76 3.2 4.8 0.00 0.00 0.00 99 1001.4
20260502211904 9 76 3.2 4.8 0.00 0.00 0.00 99 1001.4
20260502211804 9 76 3.2 4.8 0.00 0.00 0.00 99 1001.6
20260502211704 9 76 3.2 4.8 0.00 0.00 0.00 99 1001.5
20260502211604 9 76 3.2 4.8 0.00 0.00 0.00 99 1001.7
20260502211525 9 76 3.2 4.8 0.00 0.00 0.00 99 1001.5
20260502211404 9 76 3.2 3.2 0.00 0.00 0.00 99 1001.6
20260502211304 9 76 1.6 3.2 0.00 0.00 0.00 99 1001.6
20260502211203 9 76 1.6 3.2 0.00 0.00 0.00 99 1001.4
20260502211104 9 76 1.6 3.2 0.00 0.00 0.00 99 1001.5
20260502211003 9 76 1.6 3.2 0.00 0.00 0.00 99 1001.7
20260502210904 9 76 1.6 3.2 0.00 0.00 0.00 99 1001.6
20260502210803 9 76 1.6 3.2 0.00 0.00 0.00 99 1001.5
20260502210704 9 76 0.0 3.2 0.00 0.00 0.00 99 1001.6
20260502210603 9 76 0.0 3.2 0.00 0.00 0.00 99 1001.6
20260502210504 9 76 0.0 1.6 0.00 0.00 0.00 99 1001.5
20260502210403 10 0 0.0 0.0 0.00 0.00 0.00 99 1001.6
20260502210304 10 76 0.0 1.6 0.00 0.00 0.00 99 1001.6
20260502210204 10 76 0.0 1.6 0.00 0.00 0.00 99 1001.6
20260502210104 10 76 0.0 1.6 0.00 0.00 0.00 99 1001.7
20260502210025 10 76 0.0 1.6 0.00 0.00 0.00 99 1001.5
20260502205904 10 76 0.0 1.6 0.00 0.00 0.00 99 1001.6
20260502205804 10 76 0.0 1.6 0.00 0.00 0.00 99 1001.6
20260502205704 10 76 0.0 3.2 0.00 0.00 0.00 99 1001.7
20260502205604 10 76 0.0 3.2 0.00 0.00 0.00 99 1001.7
20260502205504 10 76 1.6 3.2 0.00 0.00 0.00 99 1001.8
20260502205403 10 76 1.6 3.2 0.00 0.00 0.00 99 1001.8
20260502205305 10 76 1.6 3.2 0.00 0.00 0.00 99 1001.6
20260502205225 10 76 1.6 3.2 0.00 0.00 0.00 99 1001.6
20260502205104 10 76 1.6 3.2 0.00 0.00 0.00 99 1001.6
20260502205004 9 76 1.6 3.2 0.00 0.00 0.00 99 1001.9
20260502204904 9 76 1.6 3.2 0.00 0.00 0.00 99 1001.8
20260502204825 9 76 1.6 3.2 0.00 0.00 0.00 99 1001.6
20260502204704 10 76 1.6 3.2 0.00 0.00 0.00 99 1001.8
20260502204624 10 76 1.6 3.2 0.00 0.00 0.00 99 1001.7
20260502204504 9 76 1.6 1.6 0.00 0.00 0.00 99 1001.6
20260502204424 9 76 1.6 1.6 0.00 0.00 0.00 99 1001.7
20260502204304 9 76 1.6 1.6 0.00 0.00 0.00 99 1001.7
20260502204204 9 76 1.6 1.6 0.00 0.00 0.00 99 1001.7
20260502204104 10 76 1.6 1.6 0.00 0.00 0.00 99 1001.7
20260502204004 10 76 1.6 1.6 0.00 0.00 0.00 99 1001.7
20260502203903 10 76 1.6 1.6 0.00 0.00 0.00 99 1001.7
20260502203804 10 76 1.6 3.2 0.00 0.00 0.00 98 1001.7
20260502203703 10 76 1.6 3.2 0.00 0.00 0.00 98 1001.7
20260502203604 10 76 1.6 3.2 0.00 0.00 0.00 98 1001.7
20260502203503 10 76 1.6 3.2 0.00 0.00 0.00 98 1001.9
20260502203404 10 76 1.6 3.2 0.00 0.00 0.00 98 1001.7
20260502203304 10 76 1.6 3.2 0.00 0.00 0.00 98 1001.7
20260502203203 10 76 1.6 3.2 0.00 0.00 0.00 98 1001.7
20260502203125 10 76 1.6 3.2 0.00 0.00 0.00 98 1001.6
20260502203004 10 76 1.6 3.2 0.00 0.00 0.00 98 1001.9
20260502202925 10 76 1.6 3.2 0.00 0.00 0.00 98 1001.7
20260502202803 10 76 1.6 3.2 0.00 0.00 0.00 98 1001.7
20260502202704 10 76 1.6 3.2 0.00 0.00 0.00 98 1001.9
20260502202603 10 76 1.6 3.2 0.00 0.00 0.00 98 1001.9
20260502202504 10 76 1.6 1.6 0.00 0.00 0.00 98 1001.7
20260502202404 10 76 0.0 1.6 0.00 0.00 0.00 98 1001.8
20260502202325 10 76 0.0 1.6 0.00 0.00 0.00 98 1001.8
20260502202225 10 76 0.0 1.6 0.00 0.00 0.00 98 1001.5
20260502202104 10 76 0.0 3.2 0.00 0.00 0.00 98 1001.6
20260502202003 10 76 0.0 3.2 0.00 0.00 0.00 98 1001.7
20260502201904 10 76 0.0 3.2 0.00 0.00 0.00 98 1001.9
20260502201803 10 76 1.6 3.2 0.00 0.00 0.00 98 1001.6
20260502201725 10 76 1.6 3.2 0.00 0.00 0.00 98 1001.5
20260502201624 10 78 1.6 3.2 0.00 0.00 0.00 98 1001.9
20260502201525 10 81 1.6 3.2 0.00 0.00 0.00 98 1001.6
20260502201403 10 85 1.6 3.2 0.00 0.00 0.00 98 1001.8
20260502201304 10 87 1.6 3.2 0.00 0.00 0.00 98 1001.7
20260502201203 10 88 1.6 3.2 0.00 0.00 0.00 98 1001.8
20260502201125 10 89 1.6 3.2 0.00 0.00 0.00 98 1001.9
20260502201004 10 92 1.6 3.2 0.00 0.00 0.00 98 1001.7
20260502200903 10 96 1.6 3.2 0.00 0.00 0.00 98 1001.8
20260502200804 10 100 1.6 3.2 0.00 0.00 0.00 98 1001.6
20260502200703 10 105 1.6 3.2 0.00 0.00 0.00 98 1001.7
20260502200604 10 107 1.6 3.2 0.00 0.00 0.00 98 1001.7
20260502200503 10 107 1.6 3.2 0.00 0.00 0.00 98 1002.0
20260502200403 10 107 1.6 3.2 0.00 0.00 0.00 98 1001.8
20260502200304 10 107 1.6 3.2 0.00 0.00 0.00 97 1001.9
20260502200204 10 107 1.6 3.2 0.00 0.00 0.00 97 1001.7
20260502200104 10 107 1.6 3.2 0.00 0.00 0.00 97 1001.8
20260502200004 10 107 1.6 3.2 0.00 0.00 0.00 97 1001.9
20260502195904 10 107 1.6 3.2 0.00 0.00 0.00 97 1001.7
20260502195803 10 107 1.6 3.2 0.00 0.00 0.00 97 1001.8
20260502195704 10 107 1.6 3.2 0.00 0.00 0.00 97 1001.6
20260502195604 10 107 1.6 3.2 0.00 0.00 0.00 97 1001.8
20260502195504 10 107 1.6 3.2 0.00 0.00 0.00 97 1001.7
20260502195403 10 107 1.6 3.2 0.00 0.00 0.00 97 1001.9
20260502195325 10 107 1.6 3.2 0.00 0.00 0.00 97 1001.6
20260502195203 10 107 1.6 4.8 0.00 0.00 0.00 97 1001.7
20260502195103 10 107 1.6 4.8 0.00 0.00 0.00 97 1001.7
20260502195004 10 106 1.6 4.8 0.00 0.00 0.00 96 1001.6
20260502194903 10 107 1.6 4.8 0.00 0.00 0.00 96 1001.7
20260502194825 10 107 1.6 4.8 0.00 0.00 0.00 96 1001.7
20260502194703 10 107 1.6 4.8 0.00 0.00 0.00 96 1001.7
20260502194604 10 107 1.6 4.8 0.00 0.00 0.00 96 1001.7
20260502194504 10 107 1.6 4.8 0.00 0.00 0.00 96 1001.7
20260502194404 10 108 1.6 4.8 0.00 0.00 0.00 96 1001.9
20260502194303 10 111 1.6 4.8 0.00 0.00 0.00 96 1001.7
20260502194204 10 123 1.6 4.8 0.00 0.00 0.00 96 1001.6
20260502194103 10 262 1.6 4.8 0.00 0.00 0.00 96 1001.5
20260502194004 10 277 1.6 4.8 0.00 0.00 0.00 96 1001.4
20260502193903 10 278 1.6 4.8 0.00 0.00 0.00 95 1001.7
20260502193804 10 279 1.6 4.8 0.00 0.00 0.00 95 1001.5
20260502193703 10 279 1.6 4.8 0.00 0.00 0.00 95 1001.4
20260502193604 10 279 1.6 4.8 0.00 0.00 0.00 95 1001.7
20260502193503 10 277 1.6 4.8 0.00 0.00 0.00 95 1001.6
20260502193404 10 277 3.2 6.4 0.00 0.00 0.00 95 1001.6
20260502193303 10 278 3.2 6.4 0.00 0.00 0.00 95 1001.7
20260502193204 10 281 3.2 6.4 0.00 0.00 0.00 95 1001.7
20260502193103 10 281 3.2 6.4 0.00 0.00 0.00 95 1001.5
20260502193004 10 281 3.2 6.4 0.00 0.00 0.00 95 1001.6
20260502192904 10 282 3.2 6.4 0.00 0.00 0.00 95 1001.6
20260502192825 10 283 3.2 6.4 0.00 0.00 0.00 95 1001.5
20260502192704 10 283 4.8 6.4 0.00 0.00 0.00 95 1001.5
20260502192603 10 284 4.8 6.4 0.00 0.00 0.00 95 1001.5
20260502192503 10 286 4.8 6.4 0.00 0.00 0.00 95 1001.7
20260502192404 10 287 4.8 6.4 0.00 0.00 0.00 95 1001.4
20260502192325 10 287 4.8 6.4 0.00 0.00 0.00 95 1001.6
20260502192204 10 285 4.8 6.4 0.00 0.00 0.00 95 1001.6
20260502192104 10 288 4.8 6.4 0.00 0.00 0.00 95 1001.7
20260502192003 10 286 4.8 6.4 0.00 0.00 0.00 95 1001.5
20260502191904 10 285 3.2 4.8 0.00 0.00 0.00 95 1001.8
20260502191804 10 286 1.6 4.8 0.00 0.00 0.00 94 1001.6
20260502191605 10 23 1.6 3.2 0.00 0.00 0.00 94 1001.8
20260502191504 10 27 1.6 3.2 0.00 0.00 0.00 94 1001.7
20260502191404 10 31 1.6 3.2 0.00 0.00 0.00 93 1001.6
20260502191325 10 31 1.6 3.2 0.00 0.00 0.00 93 1001.6
20260502191204 10 31 1.6 3.2 0.00 0.00 0.00 93 1001.6
20260502191105 10 30 1.6 3.2 0.00 0.00 0.00 93 1001.5
20260502191004 10 30 1.6 3.2 0.00 0.00 0.00 93 1001.8
20260502190905 10 30 0.0 3.2 0.00 0.00 0.00 93 1001.4
20260502190825 10 27 0.0 3.2 0.00 0.00 0.00 92 1001.6
20260502190704 10 21 0.0 3.2 0.00 0.00 0.00 92 1001.5
20260502190605 11 12 0.0 3.2 0.00 0.00 0.00 92 1001.5
20260502190504 11 356 0.0 3.2 0.00 0.00 0.00 92 1001.4
20260502190404 11 334 0.0 4.8 0.00 0.00 0.00 92 1001.6
20260502190304 11 317 0.0 4.8 0.00 0.00 0.00 92 1001.6
20260502190204 11 303 1.6 6.4 0.00 0.00 0.00 92 1001.5
20260502190104 11 295 1.6 6.4 0.00 0.00 0.00 92 1001.5
20260502190005 11 287 1.6 6.4 0.00 0.00 0.00 91 1001.5
20260502185926 11 285 1.6 6.4 0.00 0.00 0.00 91 1001.6
20260502185826 11 281 1.6 6.4 0.00 0.00 0.00 91 1001.6
20260502185725 11 281 3.2 6.4 0.00 0.00 0.00 91 1001.4
20260502185604 11 283 3.2 6.4 0.00 0.00 0.00 91 1001.6
20260502185504 11 282 3.2 6.4 0.00 0.00 0.00 91 1001.8
20260502185425 11 281 3.2 6.4 0.00 0.00 0.00 91 1001.4
20260502185305 11 281 3.2 6.4 0.00 0.00 0.00 91 1001.5
20260502185204 11 281 3.2 6.4 0.00 0.00 0.00 91 1001.7
20260502185105 11 280 3.2 6.4 0.00 0.00 0.00 91 1001.4
20260502185004 11 280 1.6 6.4 0.00 0.00 0.00 91 1001.8
20260502184905 11 278 1.6 6.4 0.00 0.00 0.00 91 1001.6
20260502184804 11 278 3.2 6.4 0.00 0.00 0.00 91 1001.4
20260502184704 11 278 3.2 6.4 0.00 0.00 0.00 91 1001.6
20260502184625 11 277 3.2 6.4 0.00 0.00 0.00 91 1001.6
20260502184504 11 277 3.2 6.4 0.00 0.00 0.00 91 1001.7
20260502184404 11 279 3.2 6.4 0.00 0.00 0.00 91 1001.5
20260502184305 11 280 3.2 6.4 0.00 0.00 0.00 91 1001.5
20260502184204 11 281 3.2 6.4 0.00 0.00 0.00 91 1001.5
20260502184104 11 280 3.2 6.4 0.00 0.00 0.00 91 1001.6
20260502184004 11 278 4.8 9.7 0.00 0.00 0.00 91 1001.5
20260502183905 11 278 4.8 9.7 0.00 0.00 0.00 91 1001.5
20260502183804 11 280 4.8 9.7 0.00 0.00 0.00 90 1001.6
20260502183704 11 281 4.8 9.7 0.00 0.00 0.00 91 1001.5
20260502183604 11 282 4.8 9.7 0.00 0.00 0.00 91 1001.4
20260502183525 11 283 4.8 9.7 0.00 0.00 0.00 91 1001.5
20260502183405 11 283 4.8 9.7 0.00 0.00 0.00 91 1001.4
20260502183304 11 282 4.8 9.7 0.00 0.00 0.00 90 1001.6
20260502183205 11 282 4.8 9.7 0.00 0.00 0.00 91 1001.5
20260502183104 11 282 4.8 9.7 0.00 0.00 0.00 91 1001.5
20260502182904 11 286 4.8 11.3 0.00 0.00 0.00 91 1001.5
20260502182804 11 284 6.4 11.3 0.00 0.00 0.00 91 1001.3
20260502182704 11 283 6.4 11.3 0.00 0.00 0.00 91 1001.4
20260502182604 11 283 6.4 11.3 0.00 0.00 0.00 91 1001.3
20260502182504 11 282 6.4 11.3 0.00 0.00 0.00 91 1001.5
20260502182404 11 282 6.4 11.3 0.00 0.00 0.00 91 1001.6
20260502182325 11 283 6.4 11.3 0.00 0.00 0.00 91 1001.7
20260502182204 11 283 6.4 11.3 0.00 0.00 0.00 91 1001.5
20260502182104 11 283 6.4 11.3 0.00 0.00 0.00 91 1001.5
20260502182004 11 282 4.8 11.3 0.00 0.00 0.00 90 1001.6
20260502181905 11 282 4.8 11.3 0.00 0.00 0.00 90 1001.4
20260502181804 11 282 4.8 9.7 0.00 0.00 0.00 90 1001.5
20260502181726 11 283 4.8 9.7 0.00 0.00 0.00 90 1001.4
20260502181625 11 283 4.8 9.7 0.00 0.00 0.00 90 1001.6
20260502181504 11 285 4.8 9.7 0.00 0.00 0.00 90 1001.5
20260502181404 11 285 4.8 9.7 0.00 0.00 0.00 90 1001.6
20260502181304 11 285 4.8 9.7 0.00 0.00 0.00 90 1001.6
20260502181204 11 285 4.8 9.7 0.00 0.00 0.00 90 1001.5
20260502181104 11 284 4.8 9.7 0.00 0.00 0.00 90 1001.6
20260502181005 11 284 4.8 9.7 0.00 0.00 0.00 90 1001.7
20260502180904 11 284 4.8 9.7 0.00 0.00 0.00 90 1001.8
20260502180827 11 285 4.8 9.7 0.00 0.00 0.00 90 1001.4
20260502180704 11 285 4.8 9.7 0.00 0.00 0.00 89 1001.9
20260502180625 11 285 4.8 9.7 0.00 0.00 0.00 89 1001.7
20260502180504 11 285 4.8 9.7 0.00 0.00 0.00 89 1001.7
20260502180404 11 284 4.8 9.7 0.00 0.00 0.00 89 1001.6
20260502180304 11 285 4.8 9.7 0.00 0.00 0.00 89 1001.6
20260502180205 11 286 4.8 9.7 0.00 0.00 0.00 89 1001.6
20260502180104 11 286 4.8 9.7 0.00 0.00 0.00 89 1001.6
20260502170504 11 323 1.6 6.4 0.00 0.00 0.00 89 1001.5
20260502170404 11 332 1.6 6.4 0.00 0.00 0.00 89 1001.5
20260502170325 11 346 1.6 6.4 0.00 0.00 0.00 89 1001.7
20260502170204 11 356 1.6 4.8 0.00 0.00 0.00 89 1001.6
20260502170104 11 334 1.6 4.8 0.00 0.00 0.00 89 1001.6
20260502164304 12 293 3.2 9.7 0.00 0.00 0.00 88 1001.7
20260502164204 12 286 3.2 9.7 0.00 0.00 0.00 88 1001.6
20260502164104 12 284 3.2 9.7 0.00 0.00 0.00 87 1001.9
20260502164004 12 282 3.2 9.7 0.00 0.00 0.00 87 1001.9
20260502163905 12 283 1.6 9.7 0.00 0.00 0.00 87 1001.9
20260502163804 12 284 1.6 4.8 0.00 0.00 0.00 87 1001.6
20260502163705 12 285 1.6 6.4 0.00 0.00 0.00 87 1001.8
20260502163604 12 278 1.6 6.4 0.00 0.00 0.00 87 1001.9
20260502163504 12 273 1.6 6.4 0.00 0.00 0.00 87 1002.0
20260502163404 12 273 3.2 9.7 0.00 0.00 0.00 87 1002.0
20260502163304 12 273 3.2 9.7 0.00 0.00 0.00 87 1001.7
20260502163225 12 276 3.2 9.7 0.00 0.00 0.00 87 1002.0
20260502163104 12 277 3.2 9.7 0.00 0.00 0.00 87 1002.0
20260502163026 12 279 3.2 9.7 0.00 0.00 0.00 87 1001.8
20260502162904 12 277 3.2 9.7 0.00 0.00 0.00 86 1001.7
20260502162804 12 277 3.2 9.7 0.00 0.00 0.00 87 1001.9
20260502162704 12 278 3.2 9.7 0.00 0.00 0.00 87 1001.7
20260502162604 12 278 3.2 9.7 0.00 0.00 0.00 87 1001.7
20260502162504 12 277 3.2 9.7 0.00 0.00 0.00 87 1001.8
20260502162405 12 276 3.2 9.7 0.00 0.00 0.00 87 1002.0
20260502162305 12 275 3.2 9.7 0.00 0.00 0.00 87 1001.9
20260502162225 12 271 3.2 6.4 0.00 0.00 0.00 87 1002.0
20260502162125 12 268 3.2 6.4 0.00 0.00 0.00 87 1002.2
20260502162004 12 269 3.2 6.4 0.00 0.00 0.00 87 1002.0
20260502161904 12 268 3.2 6.4 0.00 0.00 0.00 87 1002.0
20260502161825 12 265 3.2 6.4 0.00 0.00 0.00 87 1002.1
20260502161725 12 260 3.2 6.4 0.00 0.00 0.00 87 1001.9
20260502161604 12 257 3.2 6.4 0.00 0.00 0.00 87 1002.0
20260502161525 12 256 1.6 6.4 0.00 0.00 0.00 87 1002.2
20260502161404 12 253 1.6 6.4 0.00 0.00 0.00 87 1002.1
20260502161304 12 254 1.6 6.4 0.00 0.00 0.00 88 1002.1
20260502161204 12 259 1.6 6.4 0.00 0.00 0.00 88 1002.2
20260502161104 12 263 1.6 6.4 0.00 0.00 0.00 88 1002.2
20260502161004 12 270 1.6 6.4 0.00 0.00 0.00 87 1002.1
20260502160925 12 271 1.6 6.4 0.00 0.00 0.00 87 1001.9
20260502160804 12 277 3.2 6.4 0.00 0.00 0.00 87 1002.0
20260502160704 12 281 3.2 9.7 0.00 0.00 0.00 87 1002.1
20260502160604 12 284 3.2 9.7 0.00 0.00 0.00 87 1002.2
20260502160525 12 286 3.2 9.7 0.00 0.00 0.00 87 1002.3
20260502160404 12 287 3.2 9.7 0.00 0.00 0.00 87 1001.9
20260502160304 12 291 3.2 9.7 0.00 0.00 0.00 87 1002.2
20260502160204 12 290 4.8 9.7 0.00 0.00 0.00 86 1002.0
20260502160105 12 289 4.8 9.7 0.00 0.00 0.00 86 1002.1
20260502152305 13 285 8.0 14.5 0.00 0.00 0.00 82 1002.5
20260502152225 13 284 6.4 14.5 0.00 0.00 0.00 82 1002.7
20260502152104 13 280 6.4 14.5 0.00 0.00 0.00 83 1002.7
20260502152004 13 280 6.4 12.9 0.00 0.00 0.00 83 1002.6
20260502151904 13 278 6.4 12.9 0.00 0.00 0.00 83 1002.6
20260502151804 13 277 6.4 12.9 0.00 0.00 0.00 84 1002.4
20260502151704 13 278 6.4 12.9 0.00 0.00 0.00 85 1002.6
20260502151604 13 278 6.4 12.9 0.00 0.00 0.00 84 1002.7
20260502151504 13 276 6.4 14.5 0.00 0.00 0.00 84 1002.7
20260502151425 13 274 6.4 14.5 0.00 0.00 0.00 84 1002.6
20260502151325 13 272 6.4 14.5 0.00 0.00 0.00 84 1002.7
20260502151204 12 276 6.4 16.1 0.00 0.00 0.00 86 1002.7
20260502151104 12 276 8.0 16.1 0.00 0.00 0.00 86 1002.8
20260502151025 12 274 8.0 16.1 0.00 0.00 0.00 86 1002.7
20260502150904 12 276 8.0 16.1 0.00 0.00 0.00 86 1002.7
20260502150804 12 276 8.0 16.1 0.00 0.00 0.00 86 1002.8
20260502150704 12 276 8.0 16.1 0.00 0.00 0.00 87 1002.8
20260502150604 12 276 8.0 16.1 0.00 0.00 0.00 87 1002.8
20260502150504 12 277 8.0 16.1 0.00 0.00 0.00 88 1002.9
20260502150425 12 278 8.0 16.1 0.00 0.00 0.00 88 1003.3
20260502150325 12 276 8.0 16.1 0.00 0.00 0.00 88 1002.9
20260502150225 12 276 8.0 16.1 0.00 0.00 0.00 89 1002.9
20260502150104 12 275 8.0 16.1 0.00 0.00 0.00 89 1003.0
20260502140104 12 268 11.3 22.5 0.00 0.00 0.00 88 1003.3
20260502130704 12 252 11.3 20.9 0.00 0.00 0.00 88 1003.9
20260502130604 12 256 11.3 20.9 0.00 0.00 0.00 87 1003.9
20260502130504 12 257 11.3 20.9 0.00 0.00 0.00 87 1003.9
20260502130404 12 261 11.3 20.9 0.00 0.00 0.00 87 1003.9
20260502130325 12 264 11.3 20.9 0.00 0.00 0.00 87 1003.9
20260502130204 12 267 11.3 17.7 0.00 0.00 0.00 87 1003.9
20260502130104 12 265 11.3 17.7 0.00 0.00 0.00 87 1003.8
20260502123804 12 234 8.0 17.7 0.00 0.00 0.00 87 1003.7
20260502123704 12 230 8.0 17.7 0.00 0.00 0.00 87 1003.8
20260502123625 12 227 8.0 17.7 0.00 0.00 0.00 87 1004.1
20260502123525 12 230 9.7 17.7 0.00 0.00 0.00 87 1003.8
20260502123404 12 230 8.0 17.7 0.00 0.00 0.00 87 1003.7
20260502123304 12 230 9.7 17.7 0.00 0.00 0.00 86 1003.8
20260502123204 12 231 8.0 17.7 0.00 0.00 0.00 87 1003.9
20260502123104 12 230 8.0 14.5 0.00 0.00 0.00 87 1003.9
20260502123004 12 234 8.0 14.5 0.00 0.00 0.00 88 1004.0
20260502122904 12 238 8.0 14.5 0.00 0.00 0.00 88 1003.9
20260502122804 12 240 8.0 14.5 0.00 0.00 0.00 89 1003.8
20260502122704 12 237 8.0 12.9 0.00 0.00 0.00 89 1004.1
20260502122604 12 242 8.0 12.9 0.00 0.00 0.00 88 1003.8
20260502122525 12 243 8.0 12.9 0.00 0.00 0.00 89 1003.9
20260502122404 12 243 8.0 12.9 0.00 0.00 0.00 88 1003.9
20260502122306 12 243 8.0 12.9 0.00 0.00 0.00 89 1003.8
20260502122204 12 244 8.0 12.9 0.00 0.00 0.00 89 1003.6
20260502122104 12 242 8.0 17.7 0.00 0.00 0.00 89 1003.7
20260502122004 12 240 8.0 17.7 0.00 0.00 0.00 89 1003.8
20260502121904 12 237 8.0 17.7 0.00 0.00 0.00 89 1004.0
20260502121804 12 239 8.0 17.7 0.00 0.00 0.00 89 1003.9
20260502121725 12 240 8.0 17.7 0.00 0.00 0.00 89 1003.8
20260502121604 12 240 9.7 17.7 0.00 0.00 0.00 89 1003.8
20260502121504 12 241 9.7 17.7 0.00 0.00 0.00 89 1003.8
20260502121404 12 241 9.7 17.7 0.00 0.00 0.00 89 1004.0
20260502121304 12 240 9.7 17.7 0.00 0.00 0.00 89 1003.8
20260502121204 12 239 11.3 17.7 0.00 0.00 0.00 89 1004.1
20260502121104 12 237 9.7 17.7 0.00 0.00 0.00 90 1004.0
20260502121005 12 237 9.7 17.7 0.00 0.00 0.00 90 1003.9
20260502120904 12 238 9.7 17.7 0.00 0.00 0.00 91 1003.9
20260502120804 12 237 9.7 17.7 0.00 0.00 0.00 91 1004.0
20260502120704 12 240 9.7 17.7 0.00 0.00 0.00 89 1004.1
20260502120604 12 242 9.7 17.7 0.00 0.00 0.00 90 1004.1
20260502120504 12 242 9.7 17.7 0.00 0.00 0.00 89 1004.0
20260502120425 12 242 9.7 17.7 0.00 0.00 0.00 89 1004.2
20260502120304 12 241 9.7 17.7 0.00 0.00 0.00 89 1004.3
20260502120204 12 241 9.7 17.7 0.00 0.00 0.00 90 1004.1
20260502120104 12 242 9.7 16.1 0.00 0.00 0.00 90 1004.1
20260502115925 12 238 9.7 16.1 0.00 0.00 0.00 91 1004.2
20260502115804 12 236 9.7 20.9 0.00 0.00 0.00 90 1004.2
20260502115704 12 237 9.7 20.9 0.00 0.00 0.00 90 1004.2
20260502115604 12 236 11.3 20.9 0.00 0.00 0.00 91 1004.2
20260502115504 12 234 9.7 20.9 0.00 0.00 0.00 90 1004.3
20260502115404 12 233 9.7 20.9 0.00 0.00 0.00 91 1004.2
20260502115306 12 234 9.7 20.9 0.00 0.00 0.00 91 1004.1
20260502115204 12 234 11.3 20.9 0.00 0.00 0.00 90 1004.1
20260502115104 12 234 11.3 20.9 0.00 0.00 0.00 91 1003.9
20260502115004 12 235 11.3 20.9 0.00 0.00 0.00 91 1004.0
20260502114904 12 236 11.3 20.9 0.00 0.00 0.00 91 1004.0
20260502114825 12 236 11.3 20.9 0.00 0.00 0.00 91 1004.2
20260502114704 12 237 11.3 17.7 0.00 0.00 0.00 92 1003.9
20260502114604 12 238 11.3 24.1 0.00 0.00 0.00 92 1004.1
20260502114504 12 240 12.9 24.1 0.00 0.00 0.00 92 1004.0
20260502114404 12 241 12.9 24.1 0.00 0.00 0.00 92 1003.9
20260502114304 12 241 12.9 24.1 0.00 0.00 0.00 92 1004.3
20260502114225 12 243 12.9 24.1 0.00 0.00 0.00 92 1004.3
20260502114104 11 245 12.9 24.1 0.00 0.00 0.00 92 1004.1
20260502114004 11 246 12.9 24.1 0.00 0.00 0.00 92 1004.2
20260502113904 11 250 11.3 24.1 0.00 0.00 0.00 92 1004.2
20260502113804 11 253 11.3 24.1 0.00 0.00 0.00 92 1004.2
20260502113704 11 255 11.3 24.1 0.00 0.00 0.00 92 1004.0
20260502113604 11 256 11.3 24.1 0.00 0.00 0.00 93 1004.2
20260502113504 11 258 9.7 24.1 0.00 0.00 0.00 93 1004.2
20260502113404 12 260 9.7 16.1 0.00 0.00 0.00 93 1004.3
20260502113304 12 262 9.7 16.1 0.00 0.00 0.00 93 1004.1
20260502113204 12 260 9.7 16.1 0.00 0.00 0.00 93 1004.1
20260502113104 11 263 9.7 17.7 0.00 0.00 0.00 93 1004.1
20260502113025 11 264 9.7 17.7 0.00 0.00 0.00 93 1004.2
20260502112904 11 266 9.7 17.7 0.00 0.00 0.00 93 1004.2
20260502112804 11 265 9.7 17.7 0.00 0.00 0.00 93 1004.2
20260502112725 11 266 9.7 17.7 0.00 0.00 0.00 93 1004.2
20260502112604 11 266 9.7 17.7 0.00 0.00 0.00 93 1004.2
20260502112504 11 264 9.7 17.7 0.00 0.00 0.00 93 1004.2
20260502112404 11 264 9.7 17.7 0.00 0.00 0.00 93 1004.1
20260502112325 11 262 9.7 22.5 0.00 0.00 0.00 93 1004.3
20260502112204 11 263 11.3 22.5 0.00 0.00 0.00 93 1004.2
20260502112104 11 264 11.3 22.5 0.00 0.00 0.00 93 1004.1
20260502112004 11 263 11.3 22.5 0.00 0.00 0.00 93 1004.2
20260502111904 11 263 11.3 22.5 0.00 0.00 0.00 93 1004.1
20260502111804 11 263 11.3 22.5 0.00 0.00 0.00 94 1004.2
20260502111704 11 265 11.3 22.5 0.00 0.00 0.00 94 1004.1
20260502111604 11 263 11.3 22.5 0.00 0.00 0.00 94 1004.1
20260502111504 11 263 11.3 22.5 0.00 0.00 0.00 94 1004.3
20260502111404 11 263 11.3 22.5 0.00 0.00 0.00 94 1004.3
20260502111304 11 263 11.3 22.5 0.00 0.00 0.00 95 1004.3
20260502111204 11 263 11.3 20.9 0.00 0.00 0.00 95 1004.3
20260502111125 11 263 9.7 20.9 0.00 0.00 0.00 95 1004.2
20260502111004 11 258 11.3 22.5 0.00 0.00 0.00 96 1004.2
20260502110904 11 259 11.3 22.5 0.00 0.00 0.00 97 1004.3
20260502110804 11 260 11.3 22.5 0.00 0.00 0.00 97 1004.1
20260502110704 11 260 11.3 22.5 0.00 0.00 0.00 98 1004.4
20260502110625 11 259 11.3 22.5 0.00 0.00 0.00 98 1004.1
20260502110525 11 262 11.3 22.5 0.00 0.00 0.00 99 1004.0
20260502110425 11 262 11.3 22.5 0.00 0.00 0.00 99 1004.2
20260502110304 11 260 11.3 22.5 0.00 0.00 0.00 99 1004.2
20260502110204 11 259 11.3 22.5 0.00 0.00 0.00 99 1004.3
20260502110104 11 256 11.3 22.5 0.00 0.00 0.00 99 1004.3
20260502110004 11 257 11.3 22.5 0.00 0.00 0.00 99 1004.4
20260502105904 11 257 11.3 22.5 0.00 0.00 0.00 99 1004.3
20260502105804 11 256 11.3 20.9 0.00 0.00 0.00 99 1004.1
20260502105704 11 253 11.3 20.9 0.00 0.00 0.00 99 1004.3
20260502105604 11 249 11.3 20.9 0.00 0.00 0.00 99 1004.3
20260502105504 11 248 11.3 20.9 0.00 0.00 0.00 99 1004.2
20260502105404 11 247 9.7 20.9 0.00 0.00 0.00 99 1004.3
20260502105325 10 248 9.7 20.9 0.00 0.00 0.00 99 1004.3
20260502105225 10 250 9.7 20.9 0.00 0.00 0.00 99 1004.2
20260502105104 10 251 11.3 20.9 0.00 0.00 0.00 99 1004.5
20260502105004 10 251 9.7 20.9 0.00 0.00 0.00 99 1004.2
20260502104904 10 252 9.7 20.9 0.00 0.00 0.00 99 1004.2
20260502104804 10 254 9.7 20.9 0.00 0.00 0.00 99 1004.7
20260502104704 10 256 9.7 20.9 0.00 0.00 0.00 99 1004.2
20260502104625 10 256 8.0 16.1 0.00 0.00 0.00 99 1004.2
20260502104504 10 257 8.0 16.1 0.00 0.00 0.00 99 1004.4
20260502104404 10 259 8.0 16.1 0.00 0.00 0.00 99 1004.4
20260502104304 10 258 8.0 16.1 0.00 0.00 0.00 99 1004.4
20260502104204 10 255 9.7 16.1 0.00 0.00 0.00 99 1004.4
20260502104125 10 258 8.0 16.1 0.00 0.00 0.00 99 1004.4
20260502104004 10 257 8.0 14.5 0.00 0.00 0.00 99 1004.6
20260502103904 10 257 8.0 14.5 0.00 0.00 0.00 99 1004.4
20260502103804 10 252 8.0 14.5 0.00 0.00 0.00 99 1004.3
20260502103725 10 251 8.0 14.5 0.00 0.00 0.00 99 1004.5
20260502103604 10 254 8.0 14.5 0.00 0.00 0.00 99 1004.5
20260502103504 10 254 8.0 14.5 0.00 0.00 0.00 99 1004.4
20260502103404 10 253 8.0 14.5 0.00 0.00 0.00 99 1004.6
20260502103304 10 251 8.0 14.5 0.00 0.00 0.00 99 1004.3
20260502103225 10 252 8.0 14.5 0.00 0.00 0.00 99 1004.4
20260502103104 10 250 8.0 20.9 0.00 0.00 0.00 99 1004.7
20260502103004 10 253 8.0 20.9 0.00 0.00 0.00 99 1004.5
20260502102904 10 255 9.7 20.9 0.00 0.00 0.00 99 1004.4
20260502102804 10 256 9.7 20.9 0.00 0.00 0.00 99 1004.5
20260502102725 10 256 9.7 20.9 0.00 0.00 0.00 99 1004.6
20260502102625 10 255 9.7 20.9 0.00 0.00 0.00 99 1004.4
20260502102525 10 254 9.7 20.9 0.00 0.00 0.00 99 1004.5
20260502102404 10 255 9.7 20.9 0.00 0.00 0.00 99 1004.6
20260502102306 10 258 9.7 20.9 0.00 0.00 0.00 99 1004.6
20260502102225 10 255 9.7 20.9 0.00 0.00 0.00 99 1004.8
20260502102125 10 256 9.7 20.9 0.00 0.00 0.00 99 1004.5
20260502102004 10 251 9.7 20.9 0.00 0.00 0.00 99 1004.7
20260502101825 10 248 9.7 20.9 0.00 0.00 0.00 99 1004.7
20260502101625 10 247 9.7 20.9 0.00 0.00 0.00 99 1004.5
20260502101504 10 247 11.3 20.9 0.00 0.00 0.00 99 1004.6
20260502101425 9 246 11.3 20.9 0.00 0.00 0.00 99 1004.6
20260502101304 10 245 11.3 20.9 0.00 0.00 0.00 99 1004.5
20260502101204 10 245 11.3 20.9 0.00 0.00 0.00 99 1004.4
20260502101125 10 243 11.3 20.9 0.00 0.00 0.00 99 1004.6
20260502101004 9 244 11.3 20.9 0.00 0.00 0.00 99 1004.8
20260502100904 9 245 12.9 20.9 0.00 0.00 0.00 99 1004.6
20260502100804 9 245 11.3 20.9 0.00 0.00 0.00 99 1004.5
20260502100704 9 247 11.3 20.9 0.00 0.00 0.00 99 1004.5
20260502100604 9 247 11.3 20.9 0.00 0.00 0.00 99 1004.4
20260502100504 9 248 11.3 20.9 0.00 0.00 0.00 99 1004.7
20260502100404 9 246 11.3 22.5 0.00 0.00 0.00 99 1004.7
20260502100304 9 246 11.3 22.5 0.00 0.00 0.00 99 1004.8
20260502100225 9 247 11.3 22.5 0.00 0.00 0.00 99 1004.7
20260502100104 10 251 11.3 22.5 0.00 0.00 0.00 99 1004.5
20260502091504 9 256 8.0 14.5 0.00 0.00 0.00 99 1004.6
20260502091404 9 256 9.7 14.5 0.00 0.00 0.00 99 1004.7
20260502091304 9 256 9.7 16.1 0.00 0.00 0.00 99 1004.8
20260502091204 9 254 9.7 16.1 0.00 0.00 0.00 99 1004.6
20260502091125 9 253 9.7 16.1 0.00 0.00 0.00 99 1004.6
20260502091004 9 250 9.7 16.1 0.00 0.00 0.00 99 1004.4
20260502090903 9 250 9.7 16.1 0.00 0.00 0.00 99 1004.8
20260502090804 9 248 9.7 16.1 0.00 0.00 0.00 99 1004.5
20260502090704 9 244 9.7 16.1 0.00 0.00 0.00 99 1004.5
20260502090604 9 243 9.7 16.1 0.00 0.00 0.00 99 1004.6
20260502090504 9 241 9.7 16.1 0.00 0.00 0.00 99 1004.7
20260502090404 9 242 9.7 16.1 0.00 0.00 0.00 99 1004.5
20260502090304 9 243 9.7 16.1 0.00 0.00 0.00 99 1004.5
20260502090204 9 242 9.7 16.1 0.00 0.00 0.00 99 1004.6
20260502090104 9 243 9.7 16.1 0.00 0.00 0.00 99 1004.5
20260502080104 9 244 11.3 20.9 0.00 0.00 0.00 99 1004.3
20260502071504 9 244 8.0 16.1 0.00 0.00 0.00 99 1004.3
20260502071404 9 247 8.0 16.1 0.00 0.00 0.00 99 1004.5
20260502071304 9 247 9.7 16.1 0.00 0.00 0.00 99 1004.1
20260502071204 9 246 9.7 16.1 0.00 0.00 0.00 99 1004.3
20260502071104 9 245 9.7 16.1 0.00 0.00 0.00 99 1004.2
20260502071025 9 245 9.7 16.1 0.00 0.00 0.00 99 1004.3
20260502070904 9 245 9.7 16.1 0.00 0.00 0.00 99 1004.2
20260502070804 9 246 9.7 16.1 0.00 0.00 0.00 99 1004.3
20260502070725 9 246 9.7 16.1 0.00 0.00 0.00 99 1004.4
20260502070625 9 245 9.7 16.1 0.00 0.00 0.00 99 1004.1
20260502070504 9 247 9.7 16.1 0.00 0.00 0.00 99 1004.4
20260502070404 9 246 9.7 16.1 0.00 0.00 0.00 99 1004.1
20260502070304 9 247 9.7 16.1 0.00 0.00 0.00 99 1004.2
20260502070204 9 248 9.7 16.1 0.00 0.00 0.00 99 1004.0
20260502070104 9 248 9.7 16.1 0.00 0.00 0.00 99 1004.3
20260502070004 9 250 9.7 16.1 0.00 0.00 0.00 99 1004.2
20260502065903 9 251 9.7 16.1 0.00 0.00 0.00 99 1004.2
20260502065825 9 250 9.7 16.1 0.00 0.00 0.00 99 1004.1
20260502065703 9 246 9.7 16.1 0.00 0.00 0.00 99 1004.3
20260502065604 9 250 9.7 16.1 0.00 0.00 0.00 99 1004.2
20260502065503 9 248 9.7 16.1 0.00 0.00 0.00 99 1004.1
20260502065404 9 246 9.7 16.1 0.00 0.00 0.00 99 1004.1
20260502065306 9 247 9.7 16.1 0.00 0.00 0.00 99 1004.2
20260502065204 9 246 9.7 16.1 0.00 0.00 0.00 99 1004.2
20260502065104 9 248 9.7 16.1 0.00 0.00 0.00 99 1004.1
20260502065004 9 247 9.7 16.1 0.00 0.00 0.00 99 1004.1
20260502064904 9 245 9.7 16.1 0.00 0.00 0.00 99 1004.2
20260502064825 9 246 9.7 16.1 0.00 0.00 0.00 99 1004.2
20260502064704 9 249 9.7 16.1 0.00 0.00 0.00 99 1004.2
20260502064603 9 247 9.7 16.1 0.00 0.00 0.00 99 1004.2
20260502064525 9 247 9.7 16.1 0.00 0.00 0.00 99 1004.1
20260502064404 9 248 9.7 16.1 0.00 0.00 0.00 99 1004.1
20260502064304 9 250 9.7 16.1 0.00 0.00 0.00 99 1004.1
20260502064204 9 250 9.7 16.1 0.00 0.00 0.00 99 1004.2
20260502064104 9 248 9.7 16.1 0.00 0.00 0.00 99 1004.2
20260502064003 9 247 9.7 16.1 0.00 0.00 0.00 99 1004.2
20260502063904 9 249 9.7 16.1 0.00 0.00 0.00 99 1004.1
20260502063803 9 251 9.7 16.1 0.00 0.00 0.00 99 1004.1
20260502063704 9 251 9.7 16.1 0.00 0.00 0.00 99 1004.1
20260502063604 9 251 9.7 16.1 0.00 0.00 0.00 99 1004.2
20260502063504 9 249 9.7 16.1 0.00 0.00 0.00 99 1004.3
20260502063403 9 249 9.7 16.1 0.00 0.00 0.00 99 1004.2
20260502063304 9 248 8.0 16.1 0.00 0.00 0.00 99 1004.0
20260502063204 9 247 9.7 14.5 0.00 0.00 0.00 99 1004.0
20260502063104 9 248 9.7 14.5 0.00 0.00 0.00 99 1004.1
20260502063024 9 248 9.7 14.5 0.00 0.00 0.00 99 1004.3
20260502062925 9 247 8.0 14.5 0.00 0.00 0.00 99 1004.2
20260502062803 9 246 8.0 14.5 0.00 0.00 0.00 99 1004.1
20260502062704 9 245 8.0 14.5 0.00 0.00 0.00 99 1004.3
20260502062604 9 245 8.0 14.5 0.00 0.00 0.00 99 1004.2
20260502062503 9 244 8.0 14.5 0.00 0.00 0.00 99 1004.2
20260502062404 9 243 8.0 14.5 0.00 0.00 0.00 99 1004.3
20260502062306 9 242 8.0 14.5 0.00 0.00 0.00 99 1004.2
20260502062204 9 243 8.0 14.5 0.00 0.00 0.00 99 1004.2
20260502062103 9 242 8.0 14.5 0.00 0.00 0.00 99 1004.1
20260502062004 9 244 8.0 16.1 0.00 0.00 0.00 99 1004.1
20260502061904 9 245 8.0 16.1 0.00 0.00 0.00 99 1004.2
20260502061804 9 244 8.0 16.1 0.00 0.00 0.00 99 1004.0
20260502061724 9 244 9.7 16.1 0.00 0.00 0.00 99 1004.4
20260502061604 9 244 9.7 17.7 0.00 0.00 0.00 99 1004.2
20260502061503 9 246 9.7 17.7 0.00 0.00 0.00 99 1004.1
20260502061404 9 247 9.7 17.7 0.00 0.00 0.00 99 1004.2
20260502061225 9 247 9.7 17.7 0.00 0.00 0.00 99 1003.9
20260502061103 9 250 11.3 17.7 0.00 0.00 0.00 99 1004.0
20260502061004 9 249 11.3 17.7 0.00 0.00 0.00 99 1004.1
20260502060904 9 248 11.3 17.7 0.00 0.00 0.00 99 1004.2
20260502060804 9 249 11.3 17.7 0.00 0.00 0.00 99 1004.5
20260502060704 9 248 11.3 17.7 0.00 0.00 0.00 99 1004.0
20260502060603 9 248 11.3 17.7 0.00 0.00 0.00 99 1004.2
20260502060525 9 248 11.3 17.7 0.00 0.00 0.00 99 1004.2
20260502060404 9 245 11.3 17.7 0.00 0.00 0.00 99 1004.2
20260502060304 9 244 11.3 17.7 0.00 0.00 0.00 99 1004.2
20260502060224 9 243 11.3 17.7 0.00 0.00 0.00 99 1004.2
20260502060104 9 239 9.7 17.7 0.00 0.00 0.00 99 1004.2
20260502060004 9 242 9.7 17.7 0.00 0.00 0.00 99 1004.0
20260502055925 9 241 9.7 17.7 0.00 0.00 0.00 99 1003.9
20260502055804 9 241 9.7 14.5 0.00 0.00 0.00 99 1004.2
20260502055725 9 241 9.7 14.5 0.00 0.00 0.00 99 1004.3
20260502055603 9 239 8.0 14.5 0.00 0.00 0.00 99 1004.1
20260502055525 9 238 8.0 14.5 0.00 0.00 0.00 99 1004.2
20260502055403 9 238 8.0 14.5 0.00 0.00 0.00 99 1004.1
20260502055306 9 240 8.0 17.7 0.00 0.00 0.00 99 1004.1
20260502055203 9 242 8.0 17.7 0.00 0.00 0.00 99 1004.2
20260502055104 9 243 8.0 17.7 0.00 0.00 0.00 99 1004.2
20260502055004 9 241 9.7 17.7 0.00 0.00 0.00 99 1004.2
20260502054904 9 241 8.0 17.7 0.00 0.00 0.00 99 1004.3
20260502054825 9 239 8.0 17.7 0.00 0.00 0.00 99 1004.1
20260502054704 9 241 8.0 17.7 0.00 0.00 0.00 99 1004.1
20260502054604 9 244 8.0 17.7 0.00 0.00 0.00 99 1004.2
20260502054524 9 246 8.0 17.7 0.00 0.00 0.00 99 1004.2
20260502054404 9 247 8.0 17.7 0.00 0.00 0.00 99 1004.3
20260502054303 9 245 8.0 17.7 0.00 0.00 0.00 99 1004.4
20260502054204 9 247 8.0 17.7 0.00 0.00 0.00 99 1004.3
20260502054103 9 246 8.0 12.9 0.00 0.00 0.00 99 1004.0
20260502054004 9 245 8.0 12.9 0.00 0.00 0.00 99 1004.3
20260502053903 9 247 8.0 14.5 0.00 0.00 0.00 99 1004.3
20260502053825 9 248 8.0 14.5 0.00 0.00 0.00 99 1004.0
20260502053703 9 246 8.0 16.1 0.00 0.00 0.00 99 1004.2
20260502053604 9 244 9.7 16.1 0.00 0.00 0.00 99 1004.2
20260502053504 9 242 9.7 16.1 0.00 0.00 0.00 99 1004.2
20260502053405 9 243 9.7 16.1 0.00 0.00 0.00 99 1004.4
20260502053303 9 243 9.7 16.1 0.00 0.00 0.00 99 1004.1
20260502053204 9 242 9.7 16.1 0.00 0.00 0.00 99 1004.1
20260502053104 9 241 9.7 17.7 0.00 0.00 0.00 99 1004.1
20260502053004 9 242 9.7 17.7 0.00 0.00 0.00 99 1004.2
20260502052904 9 240 11.3 17.7 0.00 0.00 0.00 99 1003.9
20260502052824 9 239 11.3 17.7 0.00 0.00 0.00 99 1004.1
20260502052703 9 238 11.3 17.7 0.00 0.00 0.00 99 1004.3
20260502052603 9 238 11.3 17.7 0.00 0.00 0.00 99 1004.1
20260502052525 9 240 11.3 17.7 0.00 0.00 0.00 99 1004.3
20260502052403 9 240 11.3 17.7 0.00 0.00 0.00 99 1004.2
20260502052306 9 242 11.3 17.7 0.00 0.00 0.00 99 1004.1
20260502052204 9 244 11.3 17.7 0.00 0.00 0.00 99 1004.2
20260502052125 9 245 11.3 17.7 0.00 0.00 0.00 99 1004.3
20260502052024 9 248 11.3 17.7 0.00 0.00 0.00 99 1004.4
20260502051904 9 248 11.3 17.7 0.00 0.00 0.00 99 1004.2
20260502051803 9 252 11.3 17.7 0.00 0.00 0.00 99 1004.3
20260502051704 9 254 11.3 17.7 0.00 0.00 0.00 99 1004.4
20260502051603 9 251 11.3 22.5 0.00 0.00 0.00 99 1004.3
20260502051504 9 248 11.3 22.5 0.00 0.00 0.00 99 1004.3
20260502051403 9 250 12.9 22.5 0.00 0.00 0.00 99 1004.3
20260502051304 9 250 12.9 22.5 0.00 0.00 0.00 99 1004.3
20260502051203 9 247 12.9 22.5 0.00 0.00 0.00 99 1004.4
20260502051104 9 244 11.3 22.5 0.00 0.00 0.00 99 1004.2
20260502051024 9 243 11.3 22.5 0.00 0.00 0.00 99 1004.3
20260502050904 9 244 11.3 22.5 0.00 0.00 0.00 99 1004.3
20260502050804 9 242 11.3 22.5 0.00 0.00 0.00 99 1004.3
20260502050725 9 242 11.3 22.5 0.00 0.00 0.00 99 1004.3
20260502050604 9 246 11.3 22.5 0.00 0.00 0.00 99 1004.2
20260502050504 9 249 11.3 22.5 0.00 0.00 0.00 99 1004.0
20260502050403 9 247 11.3 20.9 0.00 0.00 0.00 99 1004.5
20260502050304 9 247 11.3 17.7 0.00 0.00 0.00 99 1004.4
20260502050203 9 249 11.3 17.7 0.00 0.00 0.00 99 1004.3
20260502050104 9 250 11.3 17.7 0.00 0.00 0.00 99 1004.3
20260502050004 9 251 9.7 17.7 0.00 0.00 0.00 99 1004.1
20260502045904 9 251 9.7 17.7 0.00 0.00 0.00 99 1004.1
20260502045825 9 253 9.7 17.7 0.00 0.00 0.00 99 1004.2
20260502045703 9 254 9.7 17.7 0.00 0.00 0.00 99 1004.2
20260502045603 9 255 9.7 17.7 0.00 0.00 0.00 99 1004.2
20260502045503 9 255 9.7 17.7 0.00 0.00 0.00 99 1004.0
20260502045306 9 255 9.7 17.7 0.00 0.00 0.00 99 1004.0
20260502045204 9 255 9.7 17.7 0.00 0.00 0.00 99 1004.1
20260502045103 9 254 9.7 17.7 0.00 0.00 0.00 99 1004.2
20260502045004 9 254 9.7 17.7 0.00 0.00 0.00 99 1003.9
20260502044903 9 252 9.7 17.7 0.00 0.00 0.00 99 1004.0
20260502044804 9 252 11.3 17.7 0.00 0.00 0.00 99 1003.8
20260502044703 9 250 11.3 17.7 0.00 0.00 0.00 99 1004.1
20260502044604 9 249 11.3 20.9 0.00 0.00 0.00 99 1004.2
20260502044504 9 247 11.3 20.9 0.00 0.00 0.00 99 1004.0
20260502044404 9 246 11.3 20.9 0.00 0.00 0.00 99 1004.0
20260502044303 9 246 11.3 20.9 0.00 0.00 0.00 99 1004.1
20260502044225 9 243 11.3 20.9 0.00 0.00 0.00 99 1004.1
20260502044103 9 245 12.9 22.5 0.00 0.00 0.00 99 1004.1
20260502044003 9 244 12.9 22.5 0.00 0.00 0.00 99 1003.9
20260502043904 9 242 12.9 22.5 0.00 0.00 0.00 99 1004.1
20260502043804 9 241 12.9 22.5 0.00 0.00 0.00 99 1004.1
20260502043704 9 240 12.9 22.5 0.00 0.00 0.00 99 1004.1
20260502043625 9 241 12.9 22.5 0.00 0.00 0.00 99 1003.8
20260502043503 9 240 12.9 22.5 0.00 0.00 0.00 99 1004.2
20260502043404 9 239 12.9 22.5 0.00 0.00 0.00 99 1004.2
20260502043304 9 238 12.9 22.5 0.00 0.00 0.00 99 1004.2
20260502043203 9 242 12.9 22.5 0.00 0.00 0.00 99 1004.1
20260502043104 9 240 12.9 22.5 0.00 0.00 0.00 99 1004.0
20260502043003 9 241 12.9 20.9 0.00 0.00 0.00 99 1004.1
20260502042904 9 242 12.9 20.9 0.00 0.00 0.00 99 1004.0
20260502042803 9 243 12.9 20.9 0.00 0.00 0.00 99 1003.9
20260502042704 9 242 12.9 20.9 0.00 0.00 0.00 99 1004.2
20260502042604 9 243 12.9 20.9 0.00 0.00 0.00 99 1004.2
20260502042504 9 243 12.9 20.9 0.00 0.00 0.00 99 1004.2
20260502042404 9 244 12.9 20.9 0.00 0.00 0.00 99 1004.1
20260502042325 9 246 12.9 20.9 0.00 0.00 0.00 99 1004.2
20260502042204 9 247 12.9 20.9 0.00 0.00 0.00 99 1004.1
20260502042104 9 244 12.9 20.9 0.00 0.00 0.00 99 1004.1
20260502042004 9 243 12.9 20.9 0.00 0.00 0.00 99 1004.1
20260502041904 9 245 12.9 20.9 0.00 0.00 0.00 99 1004.2
20260502041804 9 244 12.9 20.9 0.00 0.00 0.00 99 1004.1
20260502041725 9 246 12.9 20.9 0.00 0.00 0.00 99 1003.9
20260502041624 9 246 12.9 20.9 0.00 0.00 0.00 99 1004.2
20260502041504 9 244 12.9 20.9 0.00 0.00 0.00 99 1004.1
20260502041404 9 244 11.3 20.9 0.00 0.00 0.00 99 1004.2
20260502041304 9 243 11.3 20.9 0.00 0.00 0.00 99 1004.1
20260502041225 9 241 11.3 20.9 0.00 0.00 0.00 99 1004.2
20260502041103 9 242 11.3 20.9 0.00 0.00 0.00 99 1004.1
20260502041004 9 242 11.3 20.9 0.00 0.00 0.00 99 1004.2
20260502040903 9 242 11.3 20.9 0.00 0.00 0.00 99 1004.3
20260502040804 9 244 11.3 17.7 0.00 0.00 0.00 99 1004.0
20260502040703 9 244 11.3 17.7 0.00 0.00 0.00 99 1004.0
20260502040625 9 242 11.3 17.7 0.00 0.00 0.00 99 1004.0
20260502040503 9 243 11.3 17.7 0.00 0.00 0.00 99 1004.0
20260502040404 9 242 11.3 17.7 0.00 0.00 0.00 99 1004.2
20260502040324 9 242 11.3 17.7 0.00 0.00 0.00 99 1004.3
20260502040204 9 242 11.3 17.7 0.00 0.00 0.00 99 1004.3
20260502040103 9 242 11.3 17.7 0.00 0.00 0.00 99 1003.9
20260502040004 9 241 11.3 17.7 0.00 0.00 0.00 99 1003.9
20260502035924 9 242 11.3 17.7 0.00 0.00 0.00 99 1004.0
20260502035804 9 238 11.3 17.7 0.00 0.00 0.00 99 1004.1
20260502035704 9 235 11.3 17.7 0.00 0.00 0.00 99 1004.1
20260502035604 9 237 11.3 17.7 0.00 0.00 0.00 99 1004.0
20260502035504 9 238 11.3 17.7 0.00 0.00 0.00 99 1004.1
20260502035403 9 238 11.3 17.7 0.00 0.00 0.00 99 1004.0
20260502035306 9 238 11.3 20.9 0.00 0.00 0.00 99 1004.2
20260502035203 9 239 11.3 22.5 0.00 0.00 0.00 99 1004.2
20260502035104 9 237 11.3 22.5 0.00 0.00 0.00 99 1004.2
20260502035003 9 237 11.3 22.5 0.00 0.00 0.00 99 1004.0
20260502034904 9 237 11.3 22.5 0.00 0.00 0.00 99 1004.2
20260502034804 9 237 11.3 22.5 0.00 0.00 0.00 99 1004.2
20260502034704 9 238 11.3 22.5 0.00 0.00 0.00 99 1004.2
20260502034604 9 239 12.9 22.5 0.00 0.00 0.00 99 1004.3
20260502034503 9 240 12.9 22.5 0.00 0.00 0.00 99 1004.1
20260502034403 9 240 12.9 22.5 0.00 0.00 0.00 99 1004.1
20260502034303 9 241 12.9 22.5 0.00 0.00 0.00 99 1004.3
20260502034203 9 241 12.9 22.5 0.00 0.00 0.00 99 1004.0
20260502034124 9 243 12.9 22.5 0.00 0.00 0.00 99 1004.2
20260502034004 9 245 11.3 20.9 0.00 0.00 0.00 99 1004.3
20260502033903 9 244 11.3 20.9 0.00 0.00 0.00 99 1004.4
20260502033803 9 243 11.3 20.9 0.00 0.00 0.00 99 1004.5
20260502033703 9 242 12.9 20.9 0.00 0.00 0.00 99 1004.2
20260502033603 9 243 11.3 20.9 0.00 0.00 0.00 99 1004.3
20260502033503 9 241 11.3 20.9 0.00 0.00 0.00 99 1004.3
20260502033404 9 243 11.3 20.9 0.00 0.00 0.00 99 1004.2
20260502033303 9 244 11.3 20.9 0.00 0.00 0.00 99 1004.4
20260502033203 9 244 11.3 20.9 0.00 0.00 0.00 99 1004.4
20260502033124 9 245 11.3 17.7 0.00 0.00 0.00 99 1004.4
20260502033004 9 245 12.9 17.7 0.00 0.00 0.00 99 1004.5
20260502032903 9 246 12.9 22.5 0.00 0.00 0.00 99 1004.2
20260502032804 9 245 12.9 22.5 0.00 0.00 0.00 99 1004.3
20260502032703 9 245 12.9 22.5 0.00 0.00 0.00 99 1004.4
20260502032604 9 242 12.9 22.5 0.00 0.00 0.00 99 1004.2
20260502032503 9 240 12.9 22.5 0.00 0.00 0.00 99 1004.4
20260502032425 9 240 12.9 22.5 0.00 0.00 0.00 99 1004.5
20260502032305 9 240 14.5 22.5 0.00 0.00 0.00 99 1004.3
20260502032204 9 240 14.5 22.5 0.00 0.00 0.00 99 1004.3
20260502032103 9 239 12.9 22.5 0.00 0.00 0.00 99 1004.4
20260502032003 9 239 12.9 22.5 0.00 0.00 0.00 99 1004.4
20260502031903 9 240 14.5 22.5 0.00 0.00 0.00 99 1004.3
20260502031803 9 242 12.9 22.5 0.00 0.00 0.00 99 1004.5
20260502031703 9 244 12.9 22.5 0.00 0.00 0.00 99 1004.4
20260502031603 9 247 12.9 22.5 0.00 0.00 0.00 99 1004.3
20260502031525 9 248 12.9 22.5 0.00 0.00 0.00 99 1004.3
20260502031403 9 247 12.9 22.5 0.00 0.00 0.00 99 1004.3
20260502031303 9 247 12.9 22.5 0.00 0.00 0.00 99 1004.2
20260502031203 9 246 12.9 22.5 0.00 0.00 0.00 99 1004.2
20260502031104 9 246 12.9 22.5 0.00 0.00 0.00 99 1004.2
20260502031003 9 248 12.9 22.5 0.00 0.00 0.00 99 1004.3
20260502030904 9 247 12.9 22.5 0.00 0.00 0.00 99 1004.5
20260502030803 9 248 12.9 22.5 0.00 0.00 0.00 99 1004.4
20260502030704 9 247 12.9 20.9 0.00 0.00 0.00 99 1004.3
20260502030603 9 245 12.9 20.9 0.00 0.00 0.00 99 1004.4
20260502030504 9 244 12.9 20.9 0.00 0.00 0.00 99 1004.5
20260502030403 9 245 12.9 20.9 0.00 0.00 0.00 99 1004.5
20260502030304 9 244 12.9 20.9 0.00 0.00 0.00 99 1004.3
20260502030203 9 244 11.3 17.7 0.00 0.00 0.00 99 1004.2
20260502030104 9 244 11.3 17.7 0.00 0.00 0.00 99 1004.5
20260502030024 9 245 11.3 17.7 0.00 0.00 0.00 99 1004.6
20260502025925 9 241 11.3 17.7 0.00 0.00 0.00 99 1004.4
20260502025804 9 240 11.3 16.1 0.00 0.00 0.00 99 1004.6
20260502025703 9 239 11.3 16.1 0.00 0.00 0.00 99 1004.5
20260502025625 9 239 11.3 16.1 0.00 0.00 0.00 99 1004.4
20260502025503 9 240 11.3 17.7 0.00 0.00 0.00 99 1004.5
20260502025424 9 240 11.3 17.7 0.00 0.00 0.00 99 1004.5
20260502025306 9 238 11.3 17.7 0.00 0.00 0.00 99 1004.3
20260502025203 9 239 11.3 17.7 0.00 0.00 0.00 99 1004.5
20260502025103 9 239 11.3 17.7 0.00 0.00 0.00 99 1004.5
20260502025024 9 239 11.3 17.7 0.00 0.00 0.00 99 1004.4
20260502024903 9 241 11.3 17.7 0.00 0.00 0.00 99 1004.5
20260502024803 9 243 11.3 17.7 0.00 0.00 0.00 99 1004.4
20260502024703 9 243 11.3 17.7 0.00 0.00 0.00 99 1004.3
20260502024603 9 243 11.3 17.7 0.00 0.00 0.00 99 1004.7
20260502024504 9 243 11.3 17.7 0.00 0.00 0.00 99 1004.5
20260502024424 9 242 11.3 17.7 0.00 0.00 0.00 99 1004.4
20260502024303 9 242 9.7 16.1 0.00 0.00 0.00 99 1004.3
20260502024204 9 241 11.3 16.1 0.00 0.00 0.00 99 1004.2
20260502024104 9 239 11.3 16.1 0.00 0.00 0.00 99 1004.5
20260502024024 9 239 11.3 16.1 0.00 0.00 0.00 99 1004.3
20260502023903 9 237 11.3 17.7 0.00 0.00 0.00 99 1004.5
20260502023803 9 233 11.3 17.7 0.00 0.00 0.00 99 1004.5
20260502023703 9 232 11.3 17.7 0.00 0.00 0.00 99 1004.3
20260502023603 9 233 11.3 17.7 0.00 0.00 0.00 99 1004.6
20260502023503 9 235 11.3 17.7 0.00 0.00 0.00 99 1004.5
20260502023403 9 238 11.3 17.7 0.00 0.00 0.00 99 1004.6
20260502023304 9 239 12.9 22.5 0.00 0.00 0.00 99 1004.5
20260502023203 9 238 12.9 22.5 0.00 0.00 0.00 99 1004.7
20260502023103 9 239 12.9 22.5 0.00 0.00 0.00 99 1004.4
20260502023004 9 238 12.9 22.5 0.00 0.00 0.00 99 1004.5
20260502022925 9 237 12.9 22.5 0.00 0.00 0.00 99 1004.7
20260502022804 9 241 12.9 22.5 0.00 0.00 0.00 99 1004.8
20260502022704 9 242 12.9 22.5 0.00 0.00 0.00 99 1004.6
20260502022603 9 241 12.9 22.5 0.00 0.00 0.00 99 1004.6
20260502022525 9 241 12.9 22.5 0.00 0.00 0.00 99 1004.6
20260502022403 9 241 12.9 22.5 0.00 0.00 0.00 99 1004.7
20260502022306 9 239 12.9 22.5 0.00 0.00 0.00 99 1004.7
20260502022224 9 240 12.9 22.5 0.00 0.00 0.00 99 1004.7